Showing default

YUNHAI 1-02, 44547

Orbit data source: Space-Track

YUNHAI 1-02, 44547 is a payload satellite owned by SAST (CN) in SSO that was launched on Wed, 25 Sep 2019 UTC via a CHANG ZHENG 2D launch vehicle from the Jiuquan Satellite Launch Center, China (JSC). Payload-class satellites include a variety of spacecraft equipped with specific instruments for various scientific and technological missions. These include communications satellites like Starlink; space stations such as the ISS; scientific satellites like the Hubble; Earth observation satellites from companies like Planet Labs, Umbra, and HawkEye 360; GPS; miniature CubeSats for education and research; and military/defense satellites.

Loading next visibility...
Identifier
44547, 2019-063A
Orbit
SSO
Country
Flag of CNCN / PRC
Related business
Manufacturer
SAST
Mission
Operational Defense Weather
Bus & Motor
YUNHAI-1, Unknown motor
Mass
~800 kg wet, ~800 kg dry
Launch date (UTC)
2019-09-25 (7 years ago)
Launch vehicle
CHANG ZHENG 2D
Launch site
Jiuquan Satellite Launch Center, China (JSC)
Object type
Payload
Rocket body
Debris
Shape & HBR
Box + 2 Pan, 2.0 m
Radar Cross Section
5.141 m², Large (>1 m²)

Expand to show TLE details & history
Last TLE update: 2 days ago

TLE from 2 days ago
0 YUNHAI 1-02
1 44547U 19063A   26171.41428894  .00000246  00000-0  10604-3 0  9996
2 44547  98.4118 181.7690 0006614 136.1452 224.0258 14.32706332352338
Epoch: 2026-06-20T09:56Z
TLE epoch observation values (Epoch: 2026-06-20T09:56:34.564Z)
Latitude
-0.00007°
Longitude
123.99574°
Altitude
789.048 km
Speed
7.457 km/s
True Right ascension
12h 07m 04s
True Declination
0° 00' 00"
Sunlit
Object was in daylight at epoch
Visualization orbit readout
Latitude
Unknown
Longitude
Unknown
Altitude
Unknown
Speed
Unknown
Apparent Right ascension
Unknown
Apparent Declination
Unknown
Sunlit
N/A
Visualization observer readout
Local Sidereal Time
21:23:36
Azimuth
Unknown
Elevation
Unknown
Doppler factor
Unknown
Orbital elements
Apogee altitude
784.561 km
Perigee altitude
775.092 km
Semi-major axis
7,157.963 km
Eccentricity
0.00066
Inclination
98.4118°
RAAN
181.769°
Arg. of periapsis
136.1452°
True anomaly
223.97316°
Mean anomaly
224.0258°
Eccentric anomaly
223.99948°
Mean motion
3.58393 °/min
Orbital period
100.45 mins
BSTAR
0.00010604

Documentation

Showing up to 5 results
|